User: anonymous   Login
Location: Marseilles
(40.7010°N, 83.3930°W)
Time: 18:33:17
(UTC-04:00)
Language:

Cosmos 1459 Rocket - Orbit

View from above orbital plane
View from above orbital plane
View from above satellite
View from above satellite

Ground track
Ground track

The orbit data is extracted from the following two-line orbital elements,

1 14059U 83042B   17116.88927752 +.00000113 +00000-0 +95050-4 0  9998
2 14059 082.9691 100.0123 0043857 052.1192 308.3920 13.78585763708429
Epoch (UTC): 26 April 2017 21:20:33
Eccentricity: 0.0043857
inclination: 82.9691°
perigee height: 936 km
apogee height: 1001 km
right ascension of ascending node: 100.0123°
argument of perigee: 52.1192°
revolutions per day: 13.78585763
mean anomaly at epoch: 308.3920°
orbit number at epoch: 70842

The dashed part of the orbit path shows where the satellite is in the earth's shadow,  

DLR